QPF
0.03 0.03 0.03 0.01 0.01 0.00 0.00 0.00 0.00 0.01 0.01 0.02 0.03 0.08 0.12 0.11 0.11 0.11 0.12 0.16 0.18 0.16 0.12 0.09 0.08 0.07 0.07 0.07 0.08 0.09 0.10 0.09 0.08 0.09 0.07 0.04 0.03 0.02 0.02 0.01 0.01 0.01 0.01
0.02 0.02 0.02 0.02 0.01 0.00 0.00 0.00 0.00 0.00 0.01 0.02 0.03 0.08 0.11 0.12 0.12 0.13 0.14 0.16 0.17 0.15 0.12 0.09 0.06 0.05 0.05 0.06 0.06 0.07 0.08 0.09 0.09 0.10 0.10 0.08 0.06 0.05 0.04 0.03 0.02 0.01 0.02
0.02 0.02 0.02 0.02 0.01 0.01 0.00 0.00 0.01 0.01 0.01 0.02 0.05 0.09 0.11 0.11 0.13 0.15 0.16 0.16 0.17 0.16 0.12 0.10 0.06 0.05 0.05 0.06 0.07 0.07 0.07 0.07 0.08 0.08 0.09 0.08 0.07 0.05 0.04 0.05 0.04 0.03 0.03
0.07 0.05 0.04 0.03 0.02 0.02 0.01 0.01 0.01 0.01 0.01 0.02 0.06 0.08 0.09 0.09 0.09 0.13 0.16 0.17 0.15 0.17 0.15 0.12 0.09 0.07 0.07 0.09 0.09 0.09 0.08 0.08 0.10 0.10 0.09 0.08 0.06 0.05 0.04 0.04 0.03 0.03 0.03
0.05 0.05 0.04 0.04 0.04 0.03 0.02 0.02 0.02 0.02 0.02 0.03 0.05 0.07 0.09 0.08 0.08 0.10 0.15 0.16 0.15 0.16 0.15 0.14 0.13 0.10 0.08 0.08 0.08 0.09 0.08 0.08 0.08 0.09 0.08 0.08 0.07 0.05 0.04 0.03 0.02 0.02 0.02
0.04 0.05 0.04 0.02 0.02 0.02 0.02 0.03 0.02 0.02 0.03 0.04 0.05 0.07 0.08 0.07 0.08 0.08 0.11 0.15 0.13 0.12 0.13 0.11 0.11 0.10 0.09 0.08 0.07 0.07 0.06 0.07 0.06 0.07 0.07 0.06 0.06 0.06 0.05 0.04 0.03 0.02 0.01
0.04 0.06 0.06 0.05 0.04 0.03 0.02 0.02 0.03 0.04 0.05 0.05 0.04 0.05 0.06 0.05 0.06 0.07 0.08 0.11 0.11 0.09 0.10 0.10 0.09 0.08 0.07 0.07 0.07 0.07 0.06 0.06 0.06 0.06 0.06 0.05 0.04 0.04 0.04 0.04 0.03 0.03 0.02
0.04 0.06 0.07 0.07 0.06 0.06 0.05 0.04 0.03 0.05 0.07 0.06 0.04 0.04 0.04 0.05 0.07 0.08 0.08 0.09 0.10 0.10 0.09 0.08 0.08 0.07 0.07 0.07 0.06 0.06 0.05 0.04 0.04 0.05 0.04 0.04 0.03 0.03 0.04 0.04 0.04 0.04 0.03
0.02 0.04 0.05 0.05 0.05 0.05 0.06 0.06 0.05 0.06 0.08 0.07 0.06 0.05 0.05 0.06 0.08 0.09 0.08 0.09 0.09 0.10 0.12 0.09 0.07 0.07 0.06 0.06 0.05 0.05 0.05 0.04 0.03 0.03 0.02 0.02 0.02 0.02 0.02 0.03 0.03 0.04 0.04
0.01 0.02 0.03 0.03 0.04 0.05 0.05 0.05 0.06 0.10 0.10 0.07 0.07 0.07 0.07 0.06 0.07 0.08 0.09 0.09 0.08 0.07 0.09 0.12 0.09 0.06 0.05 0.04 0.04 0.04 0.05 0.04 0.03 0.02 0.02 0.01 0.01 0.02 0.02 0.02 0.03 0.03 0.04
0.02 0.03 0.02 0.02 0.03 0.03 0.03 0.03 0.04 0.06 0.07 0.08 0.08 0.07 0.07 0.07 0.07 0.08 0.09 0.08 0.07 0.07 0.07 0.07 0.09 0.08 0.05 0.04 0.04 0.04 0.04 0.04 0.03 0.02 0.02 0.01 0.02 0.02 0.02 0.02 0.03 0.04 0.05
0.02 0.03 0.03 0.03 0.02 0.02 0.02 0.02 0.02 0.03 0.04 0.05 0.05 0.05 0.04 0.03 0.05 0.07 0.07 0.06 0.05 0.05 0.05 0.04 0.05 0.06 0.05 0.04 0.04 0.04 0.03 0.02 0.02 0.02 0.02 0.02 0.02 0.02 0.03 0.03 0.03 0.03 0.04
0.01 0.01 0.02 0.02 0.03 0.02 0.01 0.01 0.01 0.02 0.03 0.03 0.03 0.03 0.03 0.02 0.03 0.04 0.04 0.05 0.05 0.05 0.05 0.04 0.04 0.04 0.03 0.03 0.03 0.03 0.02 0.02 0.02 0.01 0.02 0.02 0.02 0.03 0.03 0.03 0.03 0.03 0.04
0.01 0.01 0.02 0.02 0.01 0.01 0.01 0.01 0.02 0.02 0.03 0.02 0.01 0.02 0.03 0.03 0.03 0.03 0.03 0.04 0.04 0.05 0.05 0.04 0.04 0.04 0.03 0.02 0.02 0.01 0.01 0.01 0.01 0.01 0.02 0.02 0.02 0.02 0.02 0.03 0.03 0.03 0.04
0.01 0.01 0.01 0.01 0.01 0.01 0.02 0.02 0.02 0.01 0.02 0.02 0.01 0.01 0.02 0.03 0.04 0.03 0.03 0.03 0.03 0.04 0.05 0.04 0.04 0.03 0.02 0.01 0.02 0.02 0.01 0.01 0.01 0.02 0.02 0.02 0.02 0.02 0.02 0.02 0.03 0.03 0.04
0.01 0.01 0.01 0.01 0.01 0.01 0.01 0.02 0.02 0.02 0.01 0.02 0.01 0.01 0.02 0.03 0.03 0.03 0.02 0.02 0.02 0.02 0.03 0.03 0.03 0.03 0.02 0.02 0.02 0.01 0.02 0.01 0.01 0.01 0.01 0.02 0.02 0.02 0.02 0.02 0.03 0.03 0.04
0.01 0.01 0.01 0.01 0.01 0.01 0.01 0.01 0.01 0.02 0.02 0.02 0.02 0.02 0.02 0.03 0.02 0.02 0.02 0.02 0.02 0.02 0.02 0.02 0.02 0.02 0.02 0.02 0.02 0.02 0.02 0.03 0.03 0.02 0.02 0.02 0.02 0.02 0.01 0.02 0.02 0.03 0.03
0.01 0.00 0.01 0.01 0.01 0.01 0.01 0.01 0.01 0.01 0.01 0.02 0.02 0.02 0.01 0.01 0.01 0.01 0.01 0.01 0.02 0.02 0.01 0.01 0.01 0.01 0.01 0.02 0.03 0.03 0.02 0.02 0.02 0.02 0.02 0.02 0.02 0.02 0.02 0.02 0.03 0.03 0.04
0.01 0.01 0.00 0.01 0.00 0.01 0.01 0.01 0.01 0.01 0.01 0.01 0.01 0.01 0.01 0.01 0.01 0.00 0.00 0.01 0.01 0.01 0.00 0.01 0.01 0.01 0.00 0.01 0.01 0.02 0.02 0.02 0.01 0.01 0.02 0.02 0.03 0.03 0.03 0.02 0.03 0.03 0.04
0.01 0.01 0.01 0.00 0.00 0.00 0.01 0.02 0.02 0.01 0.01 0.01 0.01 0.01 0.00 0.00 0.00 0.00 0.00 0.00 0.00 0.00 0.01 0.01 0.01 0.01 0.01 0.01 0.01 0.02 0.02 0.02 0.02 0.01 0.02 0.02 0.03 0.03 0.04 0.04 0.03 0.03 0.03
0.01 0.01 0.00 0.00 0.00 0.00 0.00 0.00 0.01 0.02 0.01 0.01 0.01 0.01 0.01 0.00 0.00 0.01 0.01 0.00 0.00 0.01 0.01 0.01 0.01 0.01 0.01 0.01 0.01 0.02 0.01 0.01 0.01 0.02 0.02 0.02 0.03 0.03 0.03 0.04 0.04 0.04 0.04
0.00 0.00 0.00 0.00 0.00 0.00 0.00 0.00 0.00 0.00 0.01 0.00 0.01 0.01 0.01 0.01 0.00 0.01 0.01 0.00 0.00 0.00 0.01 0.01 0.01 0.01 0.02 0.02 0.02 0.02 0.02 0.02 0.02 0.02 0.02 0.02 0.02 0.02 0.02 0.03 0.04 0.04 0.03
0.00 0.00 0.00 0.00 0.00 0.01 0.01 0.00 0.00 0.00 0.00 0.00 0.00 0.00 0.01 0.01 0.00 0.00 0.00 0.00 0.00 0.00 0.01 0.01 0.01 0.01 0.01 0.02 0.02 0.02 0.02 0.02 0.01 0.01 0.02 0.01 0.01 0.01 0.01 0.02 0.02 0.02 0.03
0.00 0.00 0.00 0.00 0.00 0.01 0.01 0.01 0.00 0.00 0.00 0.00 0.00 0.00 0.01 0.01 0.00 0.00 0.00 0.00 0.00 0.00 0.00 0.01 0.01 0.01 0.01 0.01 0.01 0.01 0.01 0.01 0.01 0.01 0.01 0.01 0.01 0.00 0.01 0.01 0.01 0.01 0.02
0.00 0.00 0.00 0.00 0.00 0.01 0.01 0.01 0.01 0.00 0.00 0.00 0.00 0.00 0.00 0.01 0.01 0.00 0.00 0.00 0.00 0.00 0.00 0.01 0.01 0.01 0.01 0.01 0.01 0.01 0.01 0.01 0.01 0.01 0.01 0.01 0.01 0.01 0.01 0.01 0.01 0.01 0.01
0.00 0.00 0.00 0.00 0.00 0.00 0.00 0.00 0.01 0.01 0.01 0.01 0.01 0.00 0.00 0.00 0.01 0.00 0.00 0.00 0.00 0.00 0.00 0.00 0.00 0.00 0.01 0.01 0.01 0.01 0.01 0.02 0.03 0.03 0.03 0.02 0.02 0.01 0.01 0.01 0.01 0.01 0.01
MSLP
1020.33 1020.44 1020.48 1020.44 1020.30 1020.08 1019.79 1019.46 1019.09 1018.71 1018.32 1017.94 1017.56 1017.18 1016.79 1016.40 1015.99 1015.58 1015.17 1014.77 1014.39 1014.05 1013.74 1013.49 1013.29 1013.13 1013.03 1012.96 1012.93 1012.93 1012.95 1013.00 1013.08 1013.20 1013.35 1013.55 1013.78 1014.04 1014.32 1014.60 1014.88 1015.12 1015.34
1020.01 1020.18 1020.28 1020.28 1020.17 1019.98 1019.72 1019.43 1019.12 1018.83 1018.54 1018.26 1017.97 1017.65 1017.30 1016.91 1016.47 1016.01 1015.54 1015.09 1014.68 1014.32 1014.03 1013.79 1013.60 1013.45 1013.31 1013.18 1013.06 1012.93 1012.82 1012.74 1012.71 1012.74 1012.85 1013.02 1013.26 1013.55 1013.86 1014.16 1014.44 1014.68 1014.88
1019.55 1019.81 1019.99 1020.04 1019.98 1019.82 1019.59 1019.34 1019.10 1018.88 1018.68 1018.50 1018.29 1018.05 1017.75 1017.37 1016.93 1016.44 1015.94 1015.46 1015.03 1014.68 1014.40 1014.19 1014.02 1013.87 1013.71 1013.53 1013.32 1013.09 1012.86 1012.66 1012.52 1012.47 1012.52 1012.66 1012.89 1013.17 1013.47 1013.76 1014.01 1014.21 1014.36
1019.03 1019.39 1019.65 1019.78 1019.76 1019.64 1019.44 1019.22 1019.02 1018.86 1018.74 1018.64 1018.52 1018.35 1018.10 1017.75 1017.32 1016.83 1016.33 1015.84 1015.42 1015.07 1014.82 1014.63 1014.49 1014.35 1014.19 1013.97 1013.70 1013.39 1013.07 1012.78 1012.55 1012.42 1012.41 1012.50 1012.69 1012.93 1013.19 1013.43 1013.61 1013.73 1013.79
1018.50 1018.98 1019.33 1019.53 1019.57 1019.48 1019.31 1019.11 1018.93 1018.81 1018.74 1018.69 1018.64 1018.53 1018.34 1018.04 1017.64 1017.16 1016.67 1016.19 1015.78 1015.46 1015.23 1015.07 1014.96 1014.84 1014.68 1014.45 1014.15 1013.79 1013.42 1013.06 1012.78 1012.59 1012.52 1012.56 1012.68 1012.86 1013.04 1013.18 1013.26 1013.27 1013.21
1018.05 1018.63 1019.08 1019.35 1019.44 1019.38 1019.22 1019.03 1018.86 1018.74 1018.69 1018.69 1018.68 1018.62 1018.48 1018.22 1017.85 1017.41 1016.94 1016.48 1016.09 1015.79 1015.59 1015.46 1015.37 1015.28 1015.13 1014.91 1014.62 1014.25 1013.85 1013.47 1013.15 1012.92 1012.80 1012.78 1012.84 1012.92 1013.00 1013.03 1012.99 1012.86 1012.67
1017.70 1018.37 1018.90 1019.24 1019.38 1019.34 1019.18 1018.99 1018.80 1018.69 1018.64 1018.64 1018.65 1018.63 1018.52 1018.30 1017.98 1017.57 1017.13 1016.71 1016.34 1016.06 1015.88 1015.77 1015.71 1015.63 1015.51 1015.32 1015.04 1014.69 1014.31 1013.93 1013.60 1013.35 1013.19 1013.12 1013.10 1013.09 1013.06 1012.96 1012.79 1012.52 1012.20
1017.46 1018.19 1018.78 1019.17 1019.35 1019.33 1019.18 1018.97 1018.78 1018.64 1018.58 1018.57 1018.59 1018.57 1018.49 1018.31 1018.02 1017.65 1017.25 1016.85 1016.51 1016.25 1016.08 1015.99 1015.94 1015.89 1015.79 1015.62 1015.38 1015.06 1014.71 1014.35 1014.03 1013.78 1013.59 1013.47 1013.38 1013.29 1013.15 1012.95 1012.65 1012.27 1011.83
1017.28 1018.04 1018.67 1019.10 1019.31 1019.31 1019.17 1018.96 1018.75 1018.59 1018.51 1018.48 1018.49 1018.48 1018.41 1018.25 1017.99 1017.66 1017.29 1016.93 1016.61 1016.37 1016.21 1016.13 1016.08 1016.03 1015.95 1015.80 1015.58 1015.30 1014.98 1014.65 1014.36 1014.11 1013.91 1013.75 1013.61 1013.45 1013.24 1012.94 1012.55 1012.09 1011.57
1017.11 1017.87 1018.51 1018.95 1019.18 1019.21 1019.09 1018.89 1018.68 1018.51 1018.41 1018.37 1018.36 1018.34 1018.28 1018.14 1017.91 1017.62 1017.29 1016.95 1016.66 1016.43 1016.28 1016.19 1016.13 1016.07 1015.98 1015.84 1015.63 1015.38 1015.09 1014.79 1014.51 1014.27 1014.07 1013.90 1013.72 1013.51 1013.25 1012.90 1012.46 1011.95 1011.38
1016.86 1017.59 1018.22 1018.67 1018.92 1018.97 1018.89 1018.72 1018.53 1018.37 1018.27 1018.22 1018.21 1018.18 1018.12 1017.99 1017.79 1017.53 1017.24 1016.94 1016.67 1016.45 1016.29 1016.19 1016.10 1016.02 1015.91 1015.75 1015.54 1015.29 1015.01 1014.73 1014.47 1014.24 1014.04 1013.86 1013.66 1013.44 1013.15 1012.78 1012.33 1011.81 1011.24
1016.50 1017.18 1017.78 1018.22 1018.48 1018.58 1018.54 1018.42 1018.28 1018.16 1018.07 1018.03 1018.02 1017.99 1017.94 1017.82 1017.65 1017.42 1017.16 1016.90 1016.65 1016.44 1016.28 1016.15 1016.03 1015.91 1015.75 1015.56 1015.33 1015.06 1014.78 1014.51 1014.25 1014.02 1013.82 1013.63 1013.44 1013.21 1012.92 1012.55 1012.11 1011.61 1011.07
1016.02 1016.63 1017.18 1017.61 1017.89 1018.03 1018.05 1018.00 1017.92 1017.86 1017.81 1017.79 1017.79 1017.78 1017.73 1017.63 1017.48 1017.29 1017.07 1016.83 1016.61 1016.41 1016.24 1016.08 1015.92 1015.75 1015.54 1015.30 1015.03 1014.74 1014.44 1014.15 1013.89 1013.66 1013.46 1013.27 1013.07 1012.84 1012.55 1012.20 1011.79 1011.32 1010.81
1015.44 1015.98 1016.47 1016.88 1017.17 1017.35 1017.44 1017.47 1017.47 1017.47 1017.49 1017.51 1017.53 1017.53 1017.50 1017.42 1017.30 1017.14 1016.95 1016.75 1016.55 1016.36 1016.18 1015.99 1015.79 1015.56 1015.30 1015.01 1014.69 1014.35 1014.03 1013.72 1013.45 1013.21 1012.99 1012.79 1012.58 1012.35 1012.07 1011.73 1011.34 1010.90 1010.42
1014.83 1015.28 1015.71 1016.08 1016.38 1016.59 1016.75 1016.86 1016.95 1017.03 1017.11 1017.18 1017.23 1017.25 1017.24 1017.19 1017.09 1016.96 1016.80 1016.64 1016.46 1016.28 1016.09 1015.87 1015.63 1015.35 1015.04 1014.69 1014.33 1013.95 1013.59 1013.26 1012.97 1012.71 1012.47 1012.25 1012.02 1011.77 1011.48 1011.14 1010.75 1010.32 1009.87
1014.23 1014.60 1014.96 1015.29 1015.58 1015.83 1016.04 1016.23 1016.39 1016.55 1016.68 1016.80 1016.89 1016.94 1016.95 1016.92 1016.85 1016.75 1016.63 1016.49 1016.33 1016.16 1015.96 1015.72 1015.45 1015.13 1014.76 1014.37 1013.96 1013.55 1013.16 1012.80 1012.48 1012.20 1011.93 1011.68 1011.41 1011.12 1010.79 1010.42 1010.02 1009.59 1009.13
1013.71 1013.99 1014.28 1014.56 1014.83 1015.08 1015.33 1015.58 1015.81 1016.03 1016.22 1016.38 1016.50 1016.58 1016.61 1016.61 1016.56 1016.49 1016.40 1016.28 1016.15 1015.98 1015.78 1015.52 1015.22 1014.87 1014.47 1014.03 1013.59 1013.15 1012.74 1012.35 1012.01 1011.68 1011.38 1011.08 1010.76 1010.41 1010.02 1009.60 1009.16 1008.69 1008.22
1013.27 1013.47 1013.68 1013.90 1014.14 1014.39 1014.66 1014.93 1015.21 1015.47 1015.71 1015.90 1016.06 1016.16 1016.22 1016.24 1016.22 1016.18 1016.11 1016.02 1015.90 1015.74 1015.53 1015.26 1014.94 1014.56 1014.13 1013.67 1013.20 1012.75 1012.31 1011.90 1011.52 1011.16 1010.81 1010.44 1010.05 1009.63 1009.18 1008.69 1008.19 1007.67 1007.17
1012.91 1013.03 1013.16 1013.32 1013.51 1013.74 1014.01 1014.29 1014.59 1014.88 1015.14 1015.36 1015.54 1015.67 1015.76 1015.80 1015.82 1015.81 1015.77 1015.70 1015.59 1015.43 1015.22 1014.94 1014.60 1014.19 1013.75 1013.27 1012.78 1012.31 1011.85 1011.42 1011.00 1010.60 1010.19 1009.76 1009.30 1008.80 1008.27 1007.70 1007.13 1006.56 1006.02
1012.59 1012.63 1012.69 1012.78 1012.93 1013.12 1013.37 1013.65 1013.94 1014.24 1014.51 1014.75 1014.95 1015.11 1015.23 1015.31 1015.35 1015.37 1015.36 1015.31 1015.22 1015.07 1014.85 1014.56 1014.20 1013.78 1013.31 1012.82 1012.32 1011.83 1011.35 1010.89 1010.44 1009.99 1009.53 1009.03 1008.50 1007.92 1007.31 1006.67 1006.04 1005.41 1004.82
1012.26 1012.23 1012.22 1012.26 1012.35 1012.50 1012.71 1012.97 1013.26 1013.55 1013.83 1014.08 1014.30 1014.49 1014.64 1014.75 1014.84 1014.90 1014.92 1014.89 1014.81 1014.66 1014.44 1014.13 1013.76 1013.32 1012.84 1012.33 1011.81 1011.30 1010.80 1010.31 1009.83 1009.33 1008.81 1008.26 1007.66 1007.01 1006.33 1005.64 1004.95 1004.28 1003.65
1011.87 1011.79 1011.73 1011.71 1011.75 1011.87 1012.04 1012.27 1012.53 1012.81 1013.08 1013.35 1013.59 1013.81 1014.00 1014.17 1014.30 1014.40 1014.45 1014.44 1014.37 1014.23 1014.00 1013.68 1013.29 1012.83 1012.34 1011.81 1011.28 1010.75 1010.22 1009.71 1009.18 1008.64 1008.07 1007.46 1006.81 1006.11 1005.39 1004.65 1003.92 1003.22 1002.56
1011.40 1011.27 1011.17 1011.12 1011.12 1011.20 1011.33 1011.53 1011.77 1012.03 1012.31 1012.59 1012.86 1013.12 1013.36 1013.57 1013.75 1013.89 1013.98 1014.00 1013.94 1013.79 1013.55 1013.23 1012.82 1012.35 1011.83 1011.29 1010.74 1010.19 1009.64 1009.09 1008.54 1007.96 1007.35 1006.70 1006.00 1005.27 1004.51 1003.75 1003.00 1002.28 1001.59
1010.83 1010.68 1010.56 1010.47 1010.45 1010.49 1010.60 1010.77 1010.99 1011.25 1011.53 1011.83 1012.14 1012.44 1012.73 1013.00 1013.23 1013.41 1013.53 1013.57 1013.52 1013.37 1013.12 1012.78 1012.36 1011.88 1011.35 1010.80 1010.23 1009.66 1009.10 1008.52 1007.94 1007.33 1006.68 1006.00 1005.28 1004.52 1003.75 1002.98 1002.22 1001.48 1000.78
1010.19 1010.03 1009.89 1009.79 1009.74 1009.76 1009.85 1010.00 1010.21 1010.47 1010.76 1011.09 1011.44 1011.79 1012.14 1012.46 1012.74 1012.96 1013.11 1013.16 1013.12 1012.97 1012.72 1012.37 1011.94 1011.45 1010.91 1010.36 1009.79 1009.21 1008.63 1008.03 1007.43 1006.79 1006.12 1005.42 1004.68 1003.91 1003.14 1002.36 1001.59 1000.84 1000.12
1009.48 1009.32 1009.17 1009.06 1009.01 1009.01 1009.08 1009.22 1009.43 1009.71 1010.03 1010.40 1010.79 1011.20 1011.60 1011.97 1012.29 1012.55 1012.72 1012.78 1012.74 1012.59 1012.34 1011.99 1011.56 1011.07 1010.54 1009.99 1009.43 1008.85 1008.27 1007.66 1007.04 1006.39 1005.70 1004.98 1004.23 1003.45 1002.67 1001.88 1001.11 1000.34 999.58
Thickness
5591 5592 5595 5598 5601 5603 5607 5612 5614 5617 5621 5623 5626 5628 5631 5634 5638 5641 5644 5646 5648 5649 5649 5650 5651 5651 5651 5652 5651 5650 5648 5647 5646 5644 5643 5644 5645 5644 5644 5642 5641 5639 5637
5583 5585 5587 5589 5591 5594 5597 5601 5604 5608 5611 5614 5616 5619 5621 5624 5628 5631 5634 5636 5639 5640 5641 5641 5642 5642 5642 5642 5642 5641 5639 5638 5638 5635 5633 5632 5634 5636 5636 5635 5633 5632 5630
5577 5578 5580 5581 5583 5585 5588 5593 5595 5599 5603 5605 5607 5609 5611 5614 5616 5620 5624 5627 5630 5631 5632 5632 5632 5632 5633 5633 5633 5633 5632 5630 5629 5628 5626 5623 5624 5623 5625 5626 5625 5623 5621
5571 5572 5573 5574 5576 5578 5581 5584 5588 5592 5595 5597 5598 5600 5602 5604 5606 5610 5613 5616 5619 5621 5622 5623 5623 5623 5623 5624 5625 5625 5625 5623 5620 5619 5618 5617 5616 5613 5614 5615 5615 5614 5612
5565 5566 5568 5569 5571 5572 5574 5577 5581 5585 5587 5589 5590 5592 5593 5595 5597 5599 5603 5606 5609 5611 5612 5613 5614 5614 5614 5615 5615 5616 5616 5615 5613 5611 5610 5607 5605 5605 5603 5604 5605 5604 5604
5558 5560 5561 5562 5564 5566 5568 5570 5573 5577 5580 5581 5582 5584 5585 5587 5588 5590 5593 5597 5600 5601 5603 5604 5605 5605 5606 5606 5607 5607 5607 5606 5605 5604 5602 5600 5598 5596 5593 5592 5593 5594 5596
5552 5553 5554 5555 5557 5558 5560 5563 5566 5569 5571 5573 5575 5577 5579 5580 5581 5582 5585 5588 5591 5592 5593 5595 5596 5596 5597 5598 5598 5598 5597 5596 5595 5594 5593 5592 5591 5589 5586 5584 5584 5584 5586
5547 5548 5548 5549 5549 5551 5553 5555 5558 5561 5564 5566 5568 5570 5571 5573 5574 5576 5578 5580 5582 5583 5585 5586 5587 5588 5589 5589 5589 5588 5587 5586 5585 5584 5583 5582 5582 5580 5578 5575 5573 5574 5576
5544 5543 5542 5542 5543 5544 5546 5548 5551 5554 5557 5559 5561 5563 5564 5565 5566 5568 5570 5571 5573 5575 5577 5577 5579 5579 5579 5580 5580 5579 5578 5577 5576 5575 5574 5573 5572 5570 5568 5566 5564 5562 5564
5539 5538 5537 5536 5537 5538 5539 5541 5544 5547 5549 5551 5553 5555 5556 5558 5559 5560 5562 5564 5566 5567 5568 5569 5570 5571 5571 5572 5571 5571 5570 5569 5568 5567 5566 5564 5563 5561 5559 5557 5555 5553 5553
5535 5533 5532 5531 5532 5532 5534 5536 5538 5540 5542 5544 5545 5546 5548 5550 5552 5553 5555 5556 5557 5559 5560 5561 5562 5562 5563 5563 5563 5562 5561 5560 5559 5558 5557 5556 5555 5552 5550 5548 5546 5544 5543
5532 5530 5528 5527 5527 5528 5529 5530 5532 5533 5535 5537 5538 5539 5540 5542 5544 5545 5547 5548 5550 5552 5553 5554 5555 5555 5555 5555 5555 5554 5553 5551 5550 5549 5547 5546 5545 5543 5541 5539 5537 5536 5534
5530 5527 5525 5523 5523 5524 5525 5526 5527 5528 5529 5531 5532 5533 5534 5536 5537 5539 5540 5541 5543 5544 5546 5547 5547 5548 5548 5548 5547 5546 5545 5544 5542 5540 5539 5537 5536 5534 5532 5530 5528 5526 5524
5528 5525 5523 5522 5521 5521 5522 5522 5522 5523 5525 5526 5527 5528 5529 5531 5532 5533 5534 5535 5536 5537 5538 5540 5540 5540 5540 5540 5539 5538 5537 5535 5533 5532 5530 5528 5527 5526 5524 5521 5519 5516 5514
5528 5526 5524 5522 5520 5519 5519 5520 5520 5520 5521 5522 5523 5523 5525 5527 5527 5528 5529 5529 5530 5531 5531 5532 5533 5533 5533 5533 5532 5531 5529 5526 5524 5522 5521 5519 5519 5517 5515 5512 5510 5507 5504
5529 5528 5525 5523 5520 5519 5518 5518 5517 5518 5518 5519 5519 5520 5521 5521 5522 5522 5523 5523 5524 5525 5525 5526 5526 5525 5526 5526 5525 5524 5521 5518 5516 5514 5512 5511 5510 5508 5506 5504 5501 5498 5495
5531 5529 5526 5524 5522 5520 5519 5517 5516 5515 5515 5515 5516 5516 5517 5517 5517 5518 5518 5518 5518 5518 5519 5519 5519 5518 5518 5518 5518 5516 5513 5511 5509 5507 5505 5503 5501 5499 5497 5495 5492 5490 5487
5532 5529 5527 5524 5522 5520 5518 5516 5514 5513 5513 5512 5512 5513 5513 5513 5513 5513 5512 5512 5512 5512 5512 5512 5512 5511 5511 5511 5510 5508 5505 5503 5500 5498 5497 5495 5493 5491 5489 5486 5484 5482 5479
5532 5530 5527 5524 5521 5518 5516 5513 5511 5510 5509 5509 5509 5509 5509 5508 5508 5507 5507 5507 5506 5506 5506 5506 5505 5504 5504 5504 5503 5501 5497 5495 5492 5490 5488 5486 5485 5484 5482 5479 5476 5474 5471
5530 5527 5524 5521 5518 5516 5513 5510 5508 5507 5506 5507 5506 5505 5504 5504 5503 5503 5502 5501 5501 5500 5499 5499 5498 5497 5497 5497 5496 5493 5490 5487 5485 5482 5480 5478 5477 5475 5473 5470 5467 5465 5463
5528 5525 5521 5518 5516 5513 5510 5507 5506 5505 5505 5504 5502 5500 5500 5499 5498 5497 5496 5495 5494 5493 5492 5492 5491 5490 5489 5489 5487 5485 5482 5480 5477 5474 5472 5470 5468 5466 5464 5461 5459 5457 5454
5524 5521 5517 5515 5513 5510 5507 5505 5504 5504 5501 5499 5497 5495 5495 5494 5494 5492 5490 5489 5488 5486 5485 5484 5483 5482 5481 5480 5479 5478 5476 5473 5469 5467 5464 5462 5460 5458 5455 5452 5450 5448 5444
5519 5517 5514 5512 5509 5507 5505 5503 5502 5499 5496 5494 5492 5490 5489 5488 5487 5486 5484 5482 5481 5479 5478 5476 5475 5474 5473 5472 5472 5471 5469 5466 5462 5459 5457 5454 5451 5449 5446 5443 5441 5437 5434
5514 5512 5510 5508 5506 5504 5502 5502 5499 5495 5492 5489 5487 5485 5483 5482 5481 5480 5479 5477 5475 5473 5471 5470 5468 5467 5465 5464 5463 5461 5459 5458 5454 5451 5448 5446 5443 5439 5436 5433 5430 5427 5424
5510 5507 5506 5506 5504 5501 5498 5497 5494 5490 5487 5484 5482 5480 5478 5476 5475 5473 5472 5472 5471 5469 5467 5465 5462 5460 5458 5458 5457 5453 5451 5448 5445 5442 5439 5436 5432 5429 5425 5423 5420 5417 5414
5505 5503 5502 5502 5500 5497 5495 5492 5490 5486 5483 5479 5476 5474 5472 5470 5468 5466 5464 5464 5464 5463 5462 5460 5457 5455 5453 5451 5449 5446 5443 5440 5437 5433 5429 5425 5422 5419 5416 5413 5410 5408 5405